Bear Creek Observed Data For Previous 48 Hours

Caption
Day and Hour Reservoir Elevation (behind dam)* Tailwater Elevation (below dam)* Average Hourly Discharge*
6/19/2018 1 AM CDT 575.95 538.52 78
6/19/2018 2 AM CDT 575.94 538.52 78
6/19/2018 3 AM CDT 575.94 538.52 78
6/19/2018 4 AM CDT 575.93 538.52 78
6/19/2018 5 AM CDT 575.93 538.52 78
6/19/2018 6 AM CDT 575.93 538.52 78
6/19/2018 7 AM CDT 575.92 538.52 78
6/19/2018 8 AM CDT 575.92 538.52 78
6/19/2018 9 AM CDT 575.91 538.52 78
6/19/2018 10 AM CDT 575.91 538.52 78
6/19/2018 11 AM CDT 575.90 538.52 78
6/19/2018 12 PM CDT 575.89 538.52 78
6/19/2018 1 PM CDT 575.89 538.52 78
6/19/2018 2 PM CDT 575.88 538.52 78
6/19/2018 3 PM CDT 575.88 538.52 78
6/19/2018 4 PM CDT 575.88 538.52 78
6/19/2018 5 PM CDT 575.87 538.52 78
6/19/2018 6 PM CDT 575.87 538.52 78
6/19/2018 7 PM CDT 575.86 538.52 78
6/19/2018 8 PM CDT 575.86 538.52 78
6/19/2018 9 PM CDT 575.85 538.52 78
6/19/2018 10 PM CDT 575.85 538.52 78
6/19/2018 11 PM CDT 575.85 538.52 78
6/20/2018 12 AM CDT 575.84 538.52 78
6/20/2018 1 AM CDT 575.83 538.52 78
6/20/2018 2 AM CDT 575.83 538.52 78
6/20/2018 3 AM CDT 575.82 538.53 79
6/20/2018 4 AM CDT 575.82 538.53 79
6/20/2018 5 AM CDT 575.82 538.52 78
6/20/2018 6 AM CDT 575.81 538.53 79
6/20/2018 7 AM CDT 575.80 538.52 78
6/20/2018 8 AM CDT 575.80 538.52 78
6/20/2018 9 AM CDT 575.79 538.52 78
6/20/2018 10 AM CDT 575.79 538.52 78
6/20/2018 11 AM CDT 575.79 538.52 78
6/20/2018 12 PM CDT 575.78 538.52 78
6/20/2018 1 PM CDT 575.77 538.52 78
6/20/2018 2 PM CDT 575.77 538.52 78
6/20/2018 3 PM CDT 575.76 538.52 78
6/20/2018 4 PM CDT 575.76 538.52 78
6/20/2018 5 PM CDT 575.75 538.52 78
6/20/2018 6 PM CDT 575.76 538.55 80
6/20/2018 7 PM CDT 575.76 538.53 79
6/20/2018 8 PM CDT 575.76 538.52 78
6/20/2018 9 PM CDT 575.76 538.53 79
6/20/2018 10 PM CDT 575.75 538.53 79
6/20/2018 11 PM CDT 575.75 538.53 79
6/21/2018 12 AM CDT 575.74 538.53 79
6/21/2018 1 AM CDT 575.74 538.53 79
6/21/2018 2 AM CDT 575.74 538.53 79
6/21/2018 3 AM CDT 575.74 538.53 79
6/21/2018 4 AM CDT 575.75 538.53 79
6/21/2018 5 AM CDT 575.74 538.52 78
6/21/2018 6 AM CDT 575.74 538.53 79
6/21/2018 7 AM CDT 575.74 538.54 79
6/21/2018 8 AM CDT 575.79 538.56 81
6/21/2018 9 AM CDT 575.81 538.55 80
6/21/2018 10 AM CDT 575.82 538.57 82
6/21/2018 11 AM CDT 575.83 538.57 82
6/21/2018 12 PM CDT 575.85 538.56 81
6/21/2018 1 PM CDT 575.85 538.54 79
6/21/2018 2 PM CDT 575.86 538.54 79
6/21/2018 3 PM CDT 575.88 538.53 79
6/21/2018 4 PM CDT 575.90 538.53 79
6/21/2018 5 PM CDT 575.92 538.53 79

Elevations are in feet above sea level. Discharges are in cubic feet per second and are reported at the end of the hour.